User: anonymous   Login
Location: Unspecified
(0.0000°N, 0.0000°E)
Time: 01:24:49
(UTC+02:00)
Language:

Meteor 1-10 Rocket - Orbit

View from above orbital plane
View from above orbital plane
View from above satellite
View from above satellite

Ground track
Ground track

The orbit data is extracted from the following two-line orbital elements,

1 05732U 71120B   17293.33746567 -.00000115  00000-0 -77341-4 0  9996
2 05732  81.2542   2.2504 0052598  52.6532 307.9410 14.05946736356526
Epoch (UTC): 20 October 2017 08:05:57
Eccentricity: 0.0052598
inclination: 81.2542°
perigee height: 835 km
apogee height: 911 km
right ascension of ascending node: 2.2504°
argument of perigee: 52.6532°
revolutions per day: 14.05946736
mean anomaly at epoch: 307.9410°
orbit number at epoch: 35652

The dashed part of the orbit path shows where the satellite is in the earth's shadow,  

DLR